Location: Wells
(51.2093°N, 2.6446°W)
Time: 06:58:43
(UTC+01:00)

PCSat - Pass Details

Date: 18 March 2026
Orbit: 780 x 790 km, 67.1° (Epoch: 13 April)

Event Time Altitude Azimuth Distance (km) Brightness Sun altitude
Rises 03:57:55 0° 319° (NW) 3,296 12.7 -22.0°
Reaches altitude 10° 04:00:55 10° 335° (NNW) 2,365 12.1 -21.6°
Maximum altitude 04:05:01 21° 24° (NNE) 1,711 11.9 -21.0°
Drops below altitude 10° 04:09:06 10° 73° (ENE) 2,360 13.2 -20.4°
Sets 04:12:06 0° 90° (E) 3,286 13.9 -20.0°
